Simultaneous Nadir Overpasses (SNOs) Predictions

Prediction of SNOs between AQUA and NOAA-19 Satellite Orbit:

Table of predicted SNOs for the next 14.0 days since TLE Epoch: 6/21/2019
Index Date (AQUA) Time (AQUA) Lat,Lon (AQUA) SZA (AQUA ) Date (NOAA-19) Time (NOAA-19) Lat,Lon (NOAA-19) SZA (NOAA-19 ) Distance(km) Time Diff (sec)
1 06/23/2019 04:56:44 -80.38,-108.05 121.28 06/23/2019 04:56:36 -80.39,-108.12 121.26 1.61 8
2 06/25/2019 10:30:28 80.39, -11.63 58.80 06/25/2019 10:29:56 80.38, -11.56 58.80 2.19 32
3 06/25/2019 11:19:55 -80.40, 155.97 121.19 06/25/2019 11:21:01 -80.40, 156.06 121.23 1.68 66
4 06/27/2019 16:04:12 -80.39, 84.98 121.12 06/27/2019 16:03:27 -80.37, 85.08 121.12 2.57 45
5 06/27/2019 16:53:38 80.39,-107.35 58.88 06/27/2019 16:54:21 80.39,-107.41 58.87 1.18 43
6 06/29/2019 21:37:55 80.38,-178.38 58.99 06/29/2019 21:36:47 80.36,-178.38 59.00 2.15 68
7 06/29/2019 22:27:22 -80.38, -10.72 121.02 06/29/2019 22:27:52 -80.38, -10.80 121.02 1.49 30
8 07/02/2019 04:01:04 80.38, 85.88 59.13 07/02/2019 04:01:11 80.37, 85.75 59.14 2.51 7
9 07/04/2019 09:34:48 -80.37,-177.48 120.70 07/04/2019 09:34:41 -80.38,-177.44 120.69 1.07 7




NCC Satellite Simultaneous Nadir Overpasses (SNOs) Prediction Service
